Time,TemperatureF,DewpointF,PressureIn,WindDirection,WindDirectionDegrees,WindSpeedMPH,WindSpeedGustMPH,Humidity,HourlyPrecipIn,Conditions,Clouds,dailyrainin,SoftwareType,DateUTC
2013-03-05 00:09:00,46.8,42.0,30.14,South,191,2.0,5.0,82,0.00,,,0.00,weatherlink.com 1.10,2013-03-05 05:09:00,
2013-03-05 00:24:00,47.1,42.0,30.14,SSW,207,1.0,5.0,81,0.00,,,0.00,weatherlink.com 1.10,2013-03-05 05:24:00,
2013-03-05 00:39:00,46.8,41.0,30.13,SSW,207,1.0,4.0,81,0.00,,,0.00,weatherlink.com 1.10,2013-03-05 05:39:00,
2013-03-05 00:54:00,46.9,41.0,30.13,SW,235,1.0,7.0,81,0.00,,,0.00,weatherlink.com 1.10,2013-03-05 05:54:00,
2013-03-05 01:09:00,46.6,41.0,30.12,SW,234,1.0,4.0,82,0.00,,,0.00,weatherlink.com 1.10,2013-03-05 06:09:00,
2013-03-05 01:24:00,46.0,41.0,30.12,SW,234,0.0,5.0,83,0.00,,,0.00,weatherlink.com 1.10,2013-03-05 06:24:00,
2013-03-05 01:39:00,45.0,41.0,30.12,SW,236,1.0,4.0,84,0.00,,,0.00,weatherlink.com 1.10,2013-03-05 06:39:00,
2013-03-05 01:54:00,43.8,40.0,30.12,SW,236,0.0,2.0,85,0.00,,,0.00,weatherlink.com 1.10,2013-03-05 06:54:00,
2013-03-05 02:09:00,43.0,39.0,30.12,SW,236,0.0,2.0,87,0.00,,,0.00,weatherlink.com 1.10,2013-03-05 07:09:00,
2013-03-05 02:24:00,42.2,39.0,30.12,SW,236,0.0,2.0,88,0.00,,,0.00,weatherlink.com 1.10,2013-03-05 07:24:00,
2013-03-05 02:39:00,41.6,39.0,30.11,SW,236,0.0,0.0,89,0.00,,,0.00,weatherlink.com 1.10,2013-03-05 07:39:00,
2013-03-05 02:54:00,41.6,39.0,30.11,SW,236,0.0,0.0,90,0.00,,,0.00,weatherlink.com 1.10,2013-03-05 07:54:00,
2013-03-05 03:09:00,41.7,39.0,30.11,SW,236,2.0,3.0,90,0.00,,,0.00,weatherlink.com 1.10,2013-03-05 08:09:00,
2013-03-05 03:24:00,42.1,40.0,30.12,SW,236,0.0,3.0,91,0.00,,,0.00,weatherlink.com 1.10,2013-03-05 08:24:00,
2013-03-05 03:39:00,41.8,39.0,30.13,SW,236,0.0,3.0,91,0.00,,,0.00,weatherlink.com 1.10,2013-03-05 08:39:00,
2013-03-05 03:54:00,41.2,39.0,30.13,SW,236,0.0,1.0,91,0.00,,,0.00,weatherlink.com 1.10,2013-03-05 08:54:00,
2013-03-05 04:09:00,41.0,39.0,30.13,SW,236,0.0,2.0,91,0.00,,,0.00,weatherlink.com 1.10,2013-03-05 09:09:00,
2013-03-05 04:24:00,41.2,39.0,30.14,SW,236,0.0,2.0,92,0.00,,,0.00,weatherlink.com 1.10,2013-03-05 09:24:00,
2013-03-05 04:39:00,40.8,38.0,30.14,SW,236,0.0,0.0,91,0.00,,,0.00,weatherlink.com 1.10,2013-03-05 09:39:00,
2013-03-05 04:54:00,40.2,38.0,30.15,SW,236,0.0,0.0,92,0.00,,,0.00,weatherlink.com 1.10,2013-03-05 09:54:00,
2013-03-05 05:10:00,39.8,38.0,30.15,SW,236,0.0,1.0,92,0.00,,,0.00,weatherlink.com 1.10,2013-03-05 10:10:00,
2013-03-05 05:25:00,39.3,37.0,30.16,SW,236,0.0,0.0,92,0.00,,,0.00,weatherlink.com 1.10,2013-03-05 10:25:00,
2013-03-05 05:40:00,39.1,37.0,30.16,SW,236,0.0,0.0,92,0.00,,,0.00,weatherlink.com 1.10,2013-03-05 10:40:00,
2013-03-05 05:55:00,39.0,37.0,30.16,SW,236,0.0,0.0,92,0.00,,,0.00,weatherlink.com 1.10,2013-03-05 10:55:00,
2013-03-05 06:10:00,38.7,37.0,30.17,SW,236,0.0,0.0,92,0.00,,,0.00,weatherlink.com 1.10,2013-03-05 11:10:00,
2013-03-05 06:25:00,38.0,36.0,30.17,SW,236,0.0,0.0,92,0.00,,,0.00,weatherlink.com 1.10,2013-03-05 11:25:00,
2013-03-05 06:40:00,37.7,36.0,30.18,SW,236,0.0,0.0,93,0.00,,,0.00,weatherlink.com 1.10,2013-03-05 11:40:00,
2013-03-05 06:55:00,37.6,36.0,30.19,SW,236,0.0,0.0,93,0.00,,,0.00,weatherlink.com 1.10,2013-03-05 11:55:00,
2013-03-05 07:10:00,38.6,37.0,30.18,SW,236,0.0,0.0,93,0.00,,,0.00,weatherlink.com 1.10,2013-03-05 12:10:00,
2013-03-05 07:25:00,40.4,39.0,30.19,WSW,243,0.0,0.0,94,0.00,,,0.00,weatherlink.com 1.10,2013-03-05 12:25:00,
2013-03-05 07:40:00,42.3,41.0,30.19,WSW,243,0.0,0.0,94,0.00,,,0.00,weatherlink.com 1.10,2013-03-05 12:40:00,
2013-03-05 07:55:00,46.6,45.0,30.19,WSW,243,0.0,1.0,94,0.00,,,0.00,weatherlink.com 1.10,2013-03-05 12:55:00,
2013-03-05 08:10:00,50.3,48.0,30.19,WSW,243,0.0,0.0,92,0.00,,,0.00,weatherlink.com 1.10,2013-03-05 13:10:00,
2013-03-05 08:25:00,52.5,47.0,30.19,WSW,243,0.0,1.0,80,0.00,,,0.00,weatherlink.com 1.10,2013-03-05 13:25:00,
2013-03-05 08:40:00,55.1,46.0,30.18,WSW,243,0.0,2.0,72,0.00,,,0.00,weatherlink.com 1.10,2013-03-05 13:40:00,
2013-03-05 08:55:00,57.8,45.0,30.18,SW,226,3.0,5.0,63,0.00,,,0.00,weatherlink.com 1.10,2013-03-05 13:55:00,
2013-03-05 09:10:00,59.4,45.0,30.18,South,182,7.0,7.0,60,0.00,,,0.00,weatherlink.com 1.10,2013-03-05 14:10:00,
2013-03-05 09:25:00,60.9,45.0,30.17,SSW,202,8.0,12.0,56,0.00,,,0.00,weatherlink.com 1.10,2013-03-05 14:25:00,
2013-03-05 09:40:00,62.0,45.0,30.16,WSW,257,0.0,8.0,55,0.00,,,0.00,weatherlink.com 1.10,2013-03-05 14:40:00,
2013-03-05 09:55:00,62.9,44.0,30.16,SSW,205,9.0,9.0,51,0.00,,,0.00,weatherlink.com 1.10,2013-03-05 14:55:00,
2013-03-05 10:10:00,65.0,46.0,30.14,West,260,1.0,10.0,50,0.00,,,0.00,weatherlink.com 1.10,2013-03-05 15:10:00,
2013-03-05 10:25:00,65.1,45.0,30.14,South,172,2.0,11.0,49,0.00,,,0.00,weatherlink.com 1.10,2013-03-05 15:25:00,
2013-03-05 10:40:00,66.9,46.0,30.15,WSW,246,5.0,11.0,48,0.00,,,0.00,weatherlink.com 1.10,2013-03-05 15:40:00,
2013-03-05 10:56:00,68.8,46.0,30.15,SW,231,5.0,10.0,45,0.00,,,0.00,weatherlink.com 1.10,2013-03-05 15:56:00,
2013-03-05 11:11:00,69.5,45.0,30.15,SSW,213,8.0,12.0,41,0.00,,,0.00,weatherlink.com 1.10,2013-03-05 16:11:00,
2013-03-05 11:26:00,70.6,46.0,30.13,South,182,2.0,14.0,42,0.00,,,0.00,weatherlink.com 1.10,2013-03-05 16:26:00,
2013-03-05 11:41:00,70.9,45.0,30.12,WSW,254,5.0,17.0,39,0.00,,,0.00,weatherlink.com 1.10,2013-03-05 16:41:00,
2013-03-05 11:56:00,71.9,43.0,30.12,SW,222,7.0,19.0,36,0.00,,,0.00,weatherlink.com 1.10,2013-03-05 16:56:00,
2013-03-05 12:11:00,72.3,42.0,30.11,SW,217,9.0,16.0,34,0.00,,,0.00,weatherlink.com 1.10,2013-03-05 17:11:00,
2013-03-05 12:26:00,74.0,44.0,30.09,SSW,210,3.0,19.0,34,0.00,,,0.00,weatherlink.com 1.10,2013-03-05 17:26:00,
2013-03-05 12:42:00,74.3,43.0,30.08,SSW,212,5.0,18.0,32,0.00,,,0.00,weatherlink.com 1.10,2013-03-05 17:42:00,
2013-03-05 12:56:00,74.4,44.0,30.07,SSW,196,12.0,16.0,34,0.00,,,0.00,weatherlink.com 1.10,2013-03-05 17:56:00,
2013-03-05 13:11:00,75.6,44.0,30.06,WSW,240,4.0,11.0,33,0.00,,,0.00,weatherlink.com 1.10,2013-03-05 18:11:00,
2013-03-05 13:26:00,75.8,44.0,30.05,SW,215,9.0,20.0,32,0.00,,,0.00,weatherlink.com 1.10,2013-03-05 18:26:00,
2013-03-05 13:41:00,76.6,45.0,30.03,SW,234,12.0,15.0,32,0.00,,,0.00,weatherlink.com 1.10,2013-03-05 18:41:00,
2013-03-05 13:56:00,76.6,45.0,30.01,SSW,207,8.0,16.0,32,0.00,,,0.00,weatherlink.com 1.10,2013-03-05 18:56:00,
2013-03-05 14:11:00,76.6,44.0,30.01,WSW,240,5.0,17.0,31,0.00,,,0.00,weatherlink.com 1.10,2013-03-05 19:11:00,
2013-03-05 14:26:00,75.9,43.0,30.02,NW,313,9.0,16.0,31,0.00,,,0.00,weatherlink.com 1.10,2013-03-05 19:26:00,
2013-03-05 14:41:00,77.5,45.0,30.01,SSW,213,9.0,15.0,32,0.00,,,0.00,weatherlink.com 1.10,2013-03-05 19:41:00,
2013-03-05 15:01:00,-999.0,-99.9,30.01,North,-999,-999.0,-999.0,-999,0.00,,,0.00,weatherlink.com 1.10,2013-03-05 20:01:00,
2013-03-05 15:14:00,78.0,47.0,30.00,SW,215,3.0,18.0,34,0.00,,,0.00,weatherlink.com 1.10,2013-03-05 20:14:00,
2013-03-05 15:29:00,77.8,48.0,29.99,SE,144,9.0,19.0,35,0.00,,,0.00,weatherlink.com 1.10,2013-03-05 20:29:00,
2013-03-05 15:44:00,75.4,49.0,29.99,NW,311,8.0,16.0,40,0.00,,,0.00,weatherlink.com 1.10,2013-03-05 20:44:00,
2013-03-05 15:59:00,76.1,51.0,29.98,South,188,7.0,18.0,42,0.00,,,0.00,weatherlink.com 1.10,2013-03-05 20:59:00,
2013-03-05 16:15:00,77.2,54.0,29.97,SSW,194,2.0,20.0,44,0.00,,,0.00,weatherlink.com 1.10,2013-03-05 21:15:00,
2013-03-05 16:30:00,77.4,54.0,29.96,SW,236,12.0,18.0,45,0.00,,,0.00,weatherlink.com 1.10,2013-03-05 21:30:00,
2013-03-05 16:45:00,77.1,55.0,29.96,West,266,14.0,19.0,46,0.00,,,0.00,weatherlink.com 1.10,2013-03-05 21:45:00,
2013-03-05 17:00:00,75.4,55.0,29.96,SW,214,4.0,18.0,50,0.00,,,0.00,weatherlink.com 1.10,2013-03-05 22:00:00,
2013-03-05 17:15:00,73.9,55.0,29.96,SW,223,7.0,15.0,52,0.00,,,0.00,weatherlink.com 1.10,2013-03-05 22:15:00,
2013-03-05 17:30:00,73.3,56.0,29.96,SW,221,11.0,14.0,54,0.00,,,0.00,weatherlink.com 1.10,2013-03-05 22:30:00,
2013-03-05 17:45:00,72.7,56.0,29.95,WSW,248,4.0,14.0,56,0.00,,,0.00,weatherlink.com 1.10,2013-03-05 22:45:00,
2013-03-05 18:00:00,71.7,56.0,29.95,SW,231,11.0,23.0,58,0.00,,,0.00,weatherlink.com 1.10,2013-03-05 23:00:00,
2013-03-05 18:15:00,70.7,56.0,29.95,South,190,7.0,12.0,59,0.00,,,0.00,weatherlink.com 1.10,2013-03-05 23:15:00,
2013-03-05 18:30:00,69.7,56.0,29.94,WSW,257,2.0,19.0,61,0.00,,,0.00,weatherlink.com 1.10,2013-03-05 23:30:00,
2013-03-05 18:45:00,68.9,56.0,29.93,WSW,245,3.0,13.0,63,0.00,,,0.00,weatherlink.com 1.10,2013-03-05 23:45:00,
2013-03-05 19:00:00,68.4,56.0,29.94,West,264,3.0,15.0,64,0.00,,,0.00,weatherlink.com 1.10,2013-03-06 00:00:00,
2013-03-05 19:15:00,68.1,56.0,29.95,SW,221,6.0,15.0,65,0.00,,,0.00,weatherlink.com 1.10,2013-03-06 00:15:00,
2013-03-05 19:30:00,67.7,56.0,29.94,West,260,9.0,13.0,66,0.00,,,0.00,weatherlink.com 1.10,2013-03-06 00:30:00,
2013-03-05 19:45:00,67.5,56.0,29.94,SSW,194,2.0,10.0,66,0.00,,,0.00,weatherlink.com 1.10,2013-03-06 00:45:00,
2013-03-05 20:00:00,67.2,56.0,29.94,SW,226,5.0,14.0,67,0.00,,,0.00,weatherlink.com 1.10,2013-03-06 01:00:00,
2013-03-05 20:15:00,66.7,55.0,29.95,West,267,11.0,11.0,67,0.00,,,0.00,weatherlink.com 1.10,2013-03-06 01:15:00,
2013-03-05 20:30:00,66.2,55.0,29.94,SSW,212,9.0,16.0,68,0.00,,,0.00,weatherlink.com 1.10,2013-03-06 01:30:00,
2013-03-05 20:45:00,65.8,55.0,29.94,SW,223,7.0,14.0,69,0.00,,,0.00,weatherlink.com 1.10,2013-03-06 01:45:00,
2013-03-05 21:00:00,65.5,55.0,29.94,SW,219,8.0,20.0,69,0.00,,,0.00,weatherlink.com 1.10,2013-03-06 02:00:00,
2013-03-05 21:15:00,65.2,56.0,29.93,WSW,257,9.0,22.0,71,0.00,,,0.00,weatherlink.com 1.10,2013-03-06 02:15:00,
2013-03-05 21:30:00,65.0,56.0,29.93,SW,232,5.0,17.0,72,0.00,,,0.00,weatherlink.com 1.10,2013-03-06 02:30:00,
2013-03-05 21:46:00,64.7,56.0,29.93,SW,235,12.0,17.0,73,0.00,,,0.00,weatherlink.com 1.10,2013-03-06 02:46:00,
2013-03-05 22:01:00,64.4,56.0,29.93,SW,220,5.0,18.0,74,0.00,,,0.00,weatherlink.com 1.10,2013-03-06 03:01:00,
2013-03-05 22:16:00,64.2,56.0,29.92,West,267,4.0,18.0,75,0.00,,,0.00,weatherlink.com 1.10,2013-03-06 03:16:00,
2013-03-05 22:31:00,63.9,56.0,29.92,SW,236,7.0,16.0,76,0.00,,,0.00,weatherlink.com 1.10,2013-03-06 03:31:00,
2013-03-05 22:46:00,63.7,57.0,29.92,WSW,242,8.0,16.0,78,0.00,,,0.00,weatherlink.com 1.10,2013-03-06 03:46:00,
2013-03-05 23:01:00,63.6,57.0,29.91,SSW,205,9.0,17.0,79,0.00,,,0.00,weatherlink.com 1.10,2013-03-06 04:01:00,
2013-03-05 23:16:00,63.7,57.0,29.90,West,264,4.0,18.0,80,0.00,,,0.00,weatherlink.com 1.10,2013-03-06 04:16:00,
2013-03-05 23:31:00,63.8,58.0,29.90,SW,235,12.0,17.0,80,0.00,,,0.00,weatherlink.com 1.10,2013-03-06 04:31:00,
2013-03-05 23:46:00,63.7,58.0,29.89,WSW,249,14.0,19.0,81,0.00,,,0.00,weatherlink.com 1.10,2013-03-06 04:46:00,